Custer, SD

2:27 AM MST on February 25, 2017 (GMT -0700)
Custer County

Weather History for KCUT - December, 2013

Change the Weather History Date:

Thursday, December 19, 2013

  Actual Average Record
Temperature  
Mean Temperature 13 °F 23 °F  
Max Temperature 26 °F 33 °F 68 °F (1979)
Min Temperature -1 °F 13 °F -22 °F (1990)
Degree Days  
Heating Degree Days 52 42  
Month to date heating degree days 885 787  
Since 1 July heating degree days 2997 2968  
Cooling Degree Days 0 0  
Month to date cooling degree days 0 0  
Year to date cooling degree days 187 177  
Moisture  
Dew Point 11 °F    
Average Humidity 88    
Maximum Humidity 100    
Minimum Humidity 75    
Precipitation  
Precipitation 0.45 in 0.01 in 0.45 in (2013)
Month to date precipitation 0.85 0.22  
Year to date precipitation 22.27 18.79  
Sea Level Pressure  
Sea Level Pressure 29.79 in    
Wind  
Wind Speed 5 mph (ENE)    
Max Wind Speed 14 mph    
Max Gust Speed 18 mph    
Visibility 3 miles    
Events Fog , Snow    
T = Trace of Precipitation, MM = Missing Value Source: NWS Daily Summary

Daily Weather History Graph

Daily Weather History Graph

Search for Another Location

Airport or City:

Trip Planner

Search our weather history database for the weather conditions in past years. The results will help you decide how hot, cold, wet, or windy it might be!

Date:

Astronomy

Dec. 19, 2013 Rise Set
Actual Time 7:24 AM MST 4:19 PM MST
Civil Twilight 6:51 AM MST 4:52 PM MST
Nautical Twilight 6:14 AM MST 5:28 PM MST
Astronomical Twilight 5:39 AM MST 6:03 PM MST
Moon 6:51 PM MST (12/19) 8:40 AM MST (12/19)
Length of Visible Light 10h 01m
Length of Day
8h 55m
Waning Gibbous, 95% of the Moon is Illuminated
Dec 19
Waning Gibbous
Dec 25
Last Quarter
Jan 1
New
Jan 7
First Quarter
Jan 15
Full

Hourly Weather History & Observations

Time (MST) Temp. Windchill Dew Point Humidity Pressure Visibility Wind Dir Wind Speed Gust Speed Precip Events Conditions
12:53 AM 25.0 °F 19.3 °F 19.0 °F 78% 29.71 in 10.0 mi NE 4.6 mph - N/A   Clear
1:53 AM 24.1 °F 19.7 °F 19.0 °F 81% 29.72 in 10.0 mi North 3.5 mph - N/A   Clear
2:53 AM 21.9 °F - 19.0 °F 89% 29.74 in 10.0 mi Calm Calm - N/A   Clear
3:25 AM 19.4 °F 12.8 °F 17.6 °F 93% 29.70 in 10.0 mi ENE 4.6 mph - N/A   Scattered Clouds
3:34 AM 19.4 °F 10.4 °F 17.6 °F 93% 29.70 in 4.0 mi ENE 6.9 mph - N/A   Mostly Cloudy
3:40 AM 19.4 °F 10.4 °F 19.4 °F 100% 29.69 in 1.8 mi NE 6.9 mph - N/A   Mostly Cloudy
3:51 AM 21.2 °F 13.6 °F 19.4 °F 93% 29.69 in 0.5 mi NE 5.8 mph - N/A Fog Light Freezing Fog
3:53 AM 21.0 °F 11.4 °F 19.9 °F 96% 29.76 in 0.5 mi NE 8.1 mph - N/A Fog Light Freezing Fog
4:40 AM 19.4 °F 6.6 °F 19.4 °F 100% 29.68 in 0.2 mi ENE 12.7 mph - N/A Fog Light Freezing Fog
4:53 AM 19.9 °F 7.3 °F 19.0 °F 96% 29.77 in 0.2 mi ENE 12.7 mph - N/A Fog Light Freezing Fog
5:53 AM 19.0 °F 9.0 °F 18.0 °F 96% 29.79 in 0.2 mi ENE 8.1 mph - N/A Fog Light Freezing Fog
6:17 AM 19.4 °F 7.2 °F 17.6 °F 93% 29.69 in 0.5 mi NE 11.5 mph - N/A Fog Light Freezing Fog
6:49 AM 19.4 °F 9.5 °F 17.6 °F 93% 29.69 in 0.2 mi ENE 8.1 mph - N/A Fog Light Freezing Fog
6:53 AM 19.0 °F 6.8 °F 17.1 °F 92% 29.80 in 0.2 mi ENE 11.5 mph - N/A Fog Light Freezing Fog
7:53 AM 18.0 °F 6.9 °F 17.1 °F 96% 29.82 in 0.2 mi ENE 9.2 mph - 0.00 in Fog , Snow Light Snow
8:15 AM 17.6 °F 5.7 °F 15.8 °F 93% 29.70 in 0.5 mi ENE 10.4 mph - 0.01 in Fog , Snow Snow
8:37 AM 17.6 °F 5.0 °F 15.8 °F 93% 29.70 in 0.5 mi ENE 11.5 mph - 0.03 in Fog , Snow Snow
8:50 AM 17.6 °F 6.4 °F 15.8 °F 93% 29.70 in 0.2 mi NE 9.2 mph - 0.04 in Fog , Snow Snow
8:53 AM 17.1 °F 6.6 °F 15.1 °F 92% 29.82 in 0.2 mi NE 8.1 mph - 0.04 in Fog , Snow Snow
9:41 AM 15.8 °F 2.7 °F 12.2 °F 86% 29.69 in 0.5 mi NE 11.5 mph - 0.05 in Fog , Snow Snow
9:53 AM 14.0 °F -0.2 °F 10.9 °F 88% 29.83 in 0.5 mi NE 12.7 mph - 0.06 in Fog , Snow Light Snow
10:07 AM 12.2 °F -3.1 °F 10.4 °F 92% 29.70 in 0.8 mi NE 13.8 mph - 0.01 in Snow Light Snow
10:13 AM 12.2 °F -1.8 °F 10.4 °F 92% 29.71 in 0.2 mi NE 11.5 mph - 0.01 in Fog , Snow Snow
10:24 AM 12.2 °F -0.2 °F 8.6 °F 85% 29.72 in 0.2 mi ENE 9.2 mph - 0.04 in Fog , Snow Snow
10:53 AM 12.0 °F -1.3 °F 9.0 °F 88% 29.88 in 0.2 mi NE 10.4 mph - 0.12 in Fog , Snow Heavy Snow
11:19 AM 12.2 °F 1.7 °F 8.6 °F 85% 29.73 in 0.2 mi NE 6.9 mph - 0.05 in Fog , Snow Snow
11:53 AM 10.9 °F 0.2 °F 8.1 °F 88% 29.88 in 0.2 mi NE 6.9 mph - 0.11 in Fog , Snow Snow
12:05 PM 10.4 °F -0.4 °F 8.6 °F 92% 29.71 in 0.5 mi NE 6.9 mph - 0.01 in Fog , Snow Snow
12:17 PM 10.4 °F -0.4 °F 8.6 °F 92% 29.70 in 1.0 mi ENE 6.9 mph - 0.02 in Snow Light Snow
12:30 PM 12.2 °F 4.3 °F 8.6 °F 85% 29.71 in 0.5 mi NE 4.6 mph - 0.02 in Fog , Snow Snow
12:43 PM 12.2 °F 6.1 °F 8.6 °F 85% 29.70 in 0.5 mi NE 3.5 mph - 0.03 in Fog , Snow Snow
12:53 PM 12.0 °F 4.1 °F 9.0 °F 88% 29.87 in 0.5 mi NE 4.6 mph - 0.04 in Fog , Snow Snow
1:06 PM 12.2 °F 6.1 °F 10.4 °F 92% 29.70 in 0.8 mi NE 3.5 mph - 0.01 in Snow Light Snow
1:14 PM 12.2 °F 4.3 °F 10.4 °F 92% 29.70 in 1.0 mi ENE 4.6 mph - 0.01 in Snow Light Snow
1:34 PM 12.2 °F 6.1 °F 10.4 °F 92% 29.71 in 0.5 mi NE 3.5 mph - 0.02 in Fog , Snow Snow
1:53 PM 12.0 °F - 10.0 °F 92% 29.89 in 0.5 mi Calm Calm - 0.03 in Fog , Snow Snow
2:32 PM 12.2 °F - 10.4 °F 92% 29.73 in 0.8 mi Calm Calm - 0.03 in Snow Light Snow
2:40 PM 12.2 °F - 10.4 °F 92% 29.73 in 1.0 mi Calm Calm - 0.03 in Snow Light Snow
2:53 PM 12.9 °F - 10.0 °F 88% 29.91 in 1.8 mi Calm Calm - 0.03 in Snow Light Snow
3:16 PM 12.2 °F - 10.4 °F 92% 29.75 in 2.0 mi Calm Calm - 0.01 in Snow Light Snow
3:26 PM 12.2 °F 6.1 °F 10.4 °F 92% 29.75 in 1.5 mi East 3.5 mph - 0.01 in Snow Light Snow
3:53 PM 12.9 °F - 10.0 °F 88% 29.95 in 2.0 mi Calm Calm - 0.01 in Snow Light Snow
4:00 PM 12.2 °F - 10.4 °F 92% 29.77 in 1.2 mi Calm Calm - 0.00 in Snow Light Snow
4:04 PM 12.2 °F 6.1 °F 10.4 °F 92% 29.77 in 0.8 mi Variable 3.5 mph - 0.00 in Snow Light Snow
4:30 PM 10.4 °F 4.0 °F 8.6 °F 92% 29.77 in 1.0 mi South 3.5 mph - 0.01 in Snow Light Snow
4:39 PM 10.4 °F - 8.6 °F 92% 29.78 in 3.0 mi Calm Calm - 0.01 in Snow Light Snow
4:51 PM 10.4 °F - 6.8 °F 85% 29.78 in 2.5 mi Calm Calm - 0.01 in Snow Light Snow
4:53 PM 10.0 °F - 7.0 °F 87% 29.98 in 3.0 mi Calm Calm - 0.01 in Snow Light Snow
5:24 PM 8.6 °F 2.0 °F 6.8 °F 92% 29.78 in 10.0 mi South 3.5 mph - 0.00 in   Overcast
5:53 PM 8.1 °F -0.5 °F 5.0 °F 87% 30.00 in 10.0 mi South 4.6 mph - 0.00 in   Partly Cloudy
6:53 PM 3.0 °F -4.4 °F -0.0 °F 87% 30.03 in 10.0 mi SSW 3.5 mph - N/A   Scattered Clouds
7:53 PM 1.9 °F - -0.9 °F 88% 30.04 in 10.0 mi Calm Calm - N/A   Overcast
8:53 PM 1.9 °F -5.6 °F -0.9 °F 88% 30.04 in 8.0 mi ESE 3.5 mph - N/A   Overcast
9:53 PM 1.9 °F - -2.0 °F 83% 30.06 in 10.0 mi Calm Calm - N/A   Overcast
10:53 PM -0.9 °F - -5.1 °F 83% 30.05 in 10.0 mi Calm Calm - N/A   Clear
11:53 PM 1.0 °F -8.7 °F -2.9 °F 83% 30.04 in 10.0 mi West 4.6 mph - N/A   Overcast